Home   Weather   Fukushima   Past weeks

Flag for Japan Past Weather in Fukushima, Japan — Yesterday and Last 2 Weeks

Now
40 °F

Chilly.


Feels Like: 36 °F
Forecast: 27 / 43 °F
Wind: 5 mph from Northeast

Location: Wakamatsu

Current Time: Jan 18, 2017 at 3:21:50 pm

Latest Report: Jan 18, 2017 at 2:00 pm


Visibility: 13 mi

Pressure: 30.28 "Hg

Humidity: 58%

Dew Point: 26 °F

Location of FukushimaLocation

Past Weather in Fukushima — Graph

°F

Fukushima Temperature Yesterday

Maximum temperature yesterday: 38 °F (at 2:00 pm)
Minimum temperature yesterday: 21 °F (at 8:00 am)
Average temperature yesterday: 31 °F

High & Low Weather Summary for the Past Weeks

 TemperatureHumidityPressure
High49 °F (Jan 10, 3:00 pm)100% (Jan 4, 9:00 am)30.44 "Hg (Jan 4, 9:00 am)
Low21 °F (Jan 15, 6:00 am)41% (Jan 10, 3:00 pm)29.61 "Hg (Jan 14, 12:00 pm)
Average33 °F88%29.95 "Hg
* Reported Jan 3 2:00 pm — Jan 18 2:00 pm, Fukushima, Weather by CustomWeather, © 2017

Note: Actual official high and low records may vary slightly from our data, if they occured in-between our weather recording intervals... More about our weather records

Advertising

Fukushima Weather History for the Previous 24 Hours

Scroll right to see more
 ConditionsComfort  
Time TempWeatherWind HumidityBarometerVisibility
2:00 pm
Wed, Jan 18
40 °FChilly.5 mph58%30.28 "Hg12 mi
1:00 pm37 °FChilly.3 mph73%30.32 "Hg12 mi
12:00 pm39 °FChilly.2 mph66%30.35 "Hg12 mi
11:00 am36 °FChilly.3 mph74%30.40 "Hg12 mi
10:00 am36 °FChilly.1 mph73%30.42 "Hg12 mi
9:00 am33 °FChilly.2 mph88%30.43 "Hg12 mi
8:00 am31 °FChilly.2 mph95%30.44 "Hg12 mi
7:00 am31 °FChilly.2 mph98%30.43 "Hg12 mi
6:00 am31 °FFreezing rain. Overcast.3 mph93%30.42 "Hg8 mi
5:00 am32 °FFreezing rain. Overcast.3 mph91%30.41 "Hg12 mi
4:00 am33 °FFreezing rain. Overcast.3 mph85%30.40 "Hg12 mi
3:00 am34 °FChilly.7 mph83%30.40 "Hg12 mi
2:00 am33 °FFreezing rain. Overcast.8 mph87%30.39 "Hg12 mi
1:00 am31 °FFreezing rain. Overcast.2 mph100%30.38 "Hg12 mi
12:00 am31 °FChilly.3 mph98%30.37 "Hg12 mi
11:00 pm
Tue, Jan 17
32 °FChilly.1 mph97%30.37 "Hg12 mi
10:00 pm31 °FFreezing rain. Overcast.2 mph96%30.36 "Hg12 mi
9:00 pm32 °FChilly.2 mph92%30.36 "Hg12 mi
8:00 pm33 °FFreezing rain. Overcast.1 mph93%30.34 "Hg12 mi
7:00 pm33 °FFreezing rain. Overcast.3 mph88%30.33 "Hg12 mi
6:00 pm34 °FChilly.2 mph86%30.32 "Hg12 mi
5:00 pm35 °FChilly.3 mph81%30.29 "Hg12 mi
4:00 pm36 °FChilly.6 mph76%30.28 "Hg12 mi
3:00 pm38 °FChilly.7 mph70%30.26 "Hg12 mi
Weather by CustomWeather, © 2017

See weather overviewHow to use our weather pages